This is the latest recevied weather packets stored in our database for station/object W8RSN-13. If no packets are shown the sender has not sent any weather packets the latest 10 day(s).
| Time | Temp. | Humidity | Pressure | Rain* | Wind** | Luminosity | Snow |
|---|---|---|---|---|---|---|---|
| 1788455367 | 22.78° C | 54% | 1016.8 hPa | - | - | - | - |
| 1788455066 | 21.67° C | 57% | 1016.9 hPa | - | - | - | - |
| 1788454765 | 21.67° C | 57% | 1016.9 hPa | - | - | - | - |
| 1788454464 | 22.22° C | 57% | 1016.8 hPa | - | - | - | - |
| 1788454163 | 21.67° C | 59% | 1017 hPa | - | - | - | - |
| 1788453862 | 21.67° C | 59% | 1016.9 hPa | - | - | - | - |
| 1788453561 | 21.11° C | 61% | 1017 hPa | - | - | - | - |
| 1788453260 | 21.11° C | 61% | 1016.7 hPa | - | - | - | - |
| 1788452959 | 21.11° C | 60% | 1016.8 hPa | - | - | - | - |
| 1788452658 | 21.67° C | 60% | 1017 hPa | - | - | - | - |
| 1788452358 | 21.11° C | 61% | 1017 hPa | - | - | - | - |
| 1788452057 | 20.56° C | 62% | 1017 hPa | - | - | - | - |
| 1788451756 | 20.56° C | 64% | 1016.8 hPa | - | - | - | - |
| 1788451475 | 20° C | 64% | 1017 hPa | - | - | - | - |
| 1788451174 | 20° C | 64% | 1016.9 hPa | - | - | - | - |
| 1788450873 | 20° C | 63% | 1016.9 hPa | - | - | - | - |
| 1788450572 | 20° C | 63% | 1016.9 hPa | - | - | - | - |
| 1788450271 | 20° C | 63% | 1016.9 hPa | - | - | - | - |
| 1788449970 | 20° C | 62% | 1017 hPa | - | - | - | - |
| 1788449670 | 20.56° C | 62% | 1016.9 hPa | - | - | - | - |
| 1788449368 | 20° C | 63% | 1016.8 hPa | - | - | - | - |
| 1788449068 | 20° C | 63% | 1017.2 hPa | - | - | - | - |
| 1788448767 | 20° C | 63% | 1016.8 hPa | - | - | - | - |
| 1788448466 | 19.44° C | 64% | 1016.9 hPa | - | - | - | - |
| 1788448165 | 19.44° C | 64% | 1016.9 hPa | - | - | - | - |
* Rain since midnight (hover to see other rain measurements)
** Current wind speed in m/s (hover to see current wind gust speed)